Date String (YYYY-MM-DD hh:mm:ss) UTC,Instrument flags,Ambient pressure (hPa),Sample flow (lpm),Bypass flow (lpm),Sample temperature (°C),Ambient temperature (°C),ASC tube jacket temperature (°C),LED temperature (°C),Box temperature (°C),Sample RH (%),Span deviation,Mass concentration (μg/m³),Mass concentration (μg/m³),Mass concentration (μg/m³)
DateTimeUTC,F1_M11,P_M11,Q1_M11,Q2_M11,T1_M11,T2_M11,T3_M11,T4_M11,T5_M11,U1_M11,ZSPAN_M11,X0_M11,X2_M11,X1_M11
2021-09-17 11:00:00,,0834.4,5.00,0.00,30.0,29.2,00.0,39.2,31.8,17.0,0000.0,0016.43,0004.58,0003.27
2021-09-17 11:01:00,,0834.4,5.00,0.00,30.1,29.2,00.0,39.2,31.8,17.0,0000.0,0016.32,0004.58,0003.27
2021-09-17 11:02:00,,0834.4,5.01,0.00,30.1,29.2,00.0,39.2,31.8,17.0,0000.0,0015.91,0004.57,0003.26
2021-09-17 11:03:00,,0834.4,4.99,0.00,30.1,29.2,00.0,39.2,31.8,17.0,0000.0,0014.26,0004.55,0003.26
2021-09-17 11:04:00,,0834.4,5.01,0.00,30.1,29.2,00.0,39.2,31.8,17.0,0000.0,0015.13,0004.61,0003.25
2021-09-17 11:05:00,,0834.5,5.00,0.00,30.1,29.2,00.0,39.2,31.8,17.0,0000.0,0014.75,0004.56,0003.24
2021-09-17 11:06:00,,0834.5,4.99,0.00,30.1,29.2,00.0,39.2,31.8,17.0,0000.0,0015.30,0004.59,0003.25
2021-09-17 11:07:00,,0834.6,5.01,0.00,30.1,29.2,00.0,39.2,31.8,17.0,0000.0,0016.22,0004.64,0003.25
2021-09-17 11:08:00,,0834.6,4.99,0.00,30.1,29.2,00.0,39.2,31.8,17.1,0000.0,0015.42,0004.64,0003.25
2021-09-17 11:09:00,,0834.6,4.99,0.00,30.1,29.2,00.0,39.2,31.8,17.1,0000.0,0014.31,0004.66,0003.25
2021-09-17 11:10:00,,0834.6,5.02,0.00,30.1,29.2,00.0,39.2,31.8,17.1,0000.0,0014.52,0004.63,0003.26
2021-09-17 11:11:00,,0834.6,4.99,0.00,30.1,29.2,00.0,39.2,31.8,17.1,0000.0,0015.96,0004.69,0003.26
2021-09-17 11:12:00,,0834.7,5.00,0.00,30.1,29.2,00.0,39.2,31.8,17.0,0000.0,0016.21,0004.70,0003.26
2021-09-17 11:13:00,,0834.7,5.00,0.00,30.1,29.3,00.0,39.2,31.8,17.0,0000.0,0016.01,0004.67,0003.26
2021-09-17 11:14:00,,0834.7,5.01,0.00,30.1,29.3,00.0,39.2,31.8,17.0,0000.0,0015.93,0004.65,0003.25
2021-09-17 11:15:00,,0834.7,5.00,0.00,30.1,29.3,00.0,39.2,31.8,17.0,0000.0,0015.04,0004.61,0003.25
2021-09-17 11:16:00,,0834.7,5.00,0.00,30.1,29.3,00.0,39.2,31.8,17.0,0000.0,0014.70,0004.60,0003.25
2021-09-17 11:17:00,,0834.7,5.01,0.00,30.1,29.2,00.0,39.2,31.9,17.0,0000.0,0014.26,0004.54,0003.23
2021-09-17 11:18:00,,0834.7,5.00,0.00,30.1,29.2,00.0,39.2,31.9,17.0,0000.0,0014.17,0004.47,0003.22
2021-09-17 11:19:00,,0834.7,4.99,0.00,30.1,29.3,00.0,39.2,31.9,17.0,0000.0,0014.72,0004.44,0003.22
2021-09-17 11:20:00,,0834.7,5.00,0.00,30.1,29.3,00.0,39.2,31.9,17.0,0000.0,0015.16,0004.43,0003.21
2021-09-17 11:21:00,,0834.7,5.01,0.00,30.1,29.3,00.0,39.3,31.9,17.0,0000.0,0014.54,0004.44,0003.19
2021-09-17 11:22:00,,0834.7,5.01,0.00,30.1,29.3,00.0,39.3,31.9,17.0,0000.0,0014.12,0004.41,0003.18
2021-09-17 11:23:00,,0834.7,5.00,0.00,30.2,29.3,00.0,39.3,31.9,16.9,0000.0,0015.14,0004.40,0003.17
2021-09-17 11:24:00,,0834.8,4.99,0.00,30.2,29.3,00.0,39.3,31.9,16.9,0000.0,0015.07,0004.37,0003.18
2021-09-17 11:25:00,,0834.8,5.00,0.00,30.2,29.3,00.0,39.3,31.9,16.9,0000.0,0015.16,0004.38,0003.17
2021-09-17 11:26:00,,0834.7,5.00,0.00,30.2,29.3,00.0,39.3,31.9,16.9,0000.0,0015.25,0004.37,0003.16
2021-09-17 11:27:00,,0834.8,4.99,0.00,30.2,29.3,00.0,39.3,31.9,16.9,0000.0,0015.99,0004.34,0003.16
2021-09-17 11:28:00,,0834.7,5.00,0.00,30.2,29.3,00.0,39.3,31.9,16.9,0000.0,0015.75,0004.35,0003.16
2021-09-17 11:29:00,,0834.7,4.98,0.00,30.2,29.3,00.0,39.3,31.9,16.9,0000.0,0015.04,0004.40,0003.17
2021-09-17 11:30:00,,0834.7,5.01,0.00,30.2,29.3,00.0,39.3,31.9,16.9,0000.0,0014.11,0004.41,0003.17
2021-09-17 11:31:00,,0834.7,5.00,0.00,30.2,29.3,00.0,39.3,31.9,16.9,0000.0,0013.94,0004.41,0003.17
2021-09-17 11:32:00,,0834.8,5.00,0.00,30.2,29.3,00.0,39.3,31.9,16.9,0000.0,0013.95,0004.44,0003.18
2021-09-17 11:33:00,,0834.9,4.99,0.00,30.2,29.3,00.0,39.3,31.9,16.9,0000.0,0013.32,0004.44,0003.18
2021-09-17 11:34:00,,0835.0,5.00,0.00,30.2,29.3,00.0,39.3,31.9,16.9,0000.0,0012.20,0004.38,0003.18
2021-09-17 11:35:00,,0834.9,5.00,0.00,30.2,29.3,00.0,39.3,31.9,16.9,0000.0,0012.87,0004.39,0003.17
2021-09-17 11:36:00,,0834.9,5.00,0.00,30.2,29.3,00.0,39.3,31.9,16.9,0000.0,0013.25,0004.43,0003.17
2021-09-17 11:37:00,,0835.0,5.01,0.00,30.2,29.3,00.0,39.3,31.9,16.9,0000.0,0013.16,0004.44,0003.17
2021-09-17 11:38:00,,0835.0,5.00,0.00,30.2,29.3,00.0,39.3,32.0,16.9,0000.0,0012.79,0004.49,0003.17
2021-09-17 11:39:00,,0834.9,5.01,0.00,30.2,29.3,00.0,39.3,32.0,16.9,0000.0,0013.66,0004.52,0003.18
2021-09-17 11:40:00,,0834.9,4.99,0.00,30.2,29.3,00.0,39.3,31.9,16.9,0000.0,0014.09,0004.49,0003.18
2021-09-17 11:41:00,,0835.0,4.99,0.00,30.2,29.3,00.0,39.3,31.9,16.9,0000.0,0013.98,0004.47,0003.18
2021-09-17 11:42:00,,0835.0,5.01,0.00,30.2,29.3,00.0,39.3,31.9,16.9,0000.0,0013.58,0004.45,0003.18
2021-09-17 11:43:00,,0835.0,5.00,0.00,30.2,29.3,00.0,39.3,31.9,16.9,0000.0,0013.26,0004.40,0003.18
2021-09-17 11:44:00,,0835.0,4.99,0.00,30.2,29.3,00.0,39.3,32.0,16.9,0000.0,0013.71,0004.41,0003.18
2021-09-17 11:45:00,,0835.0,5.01,0.00,30.2,29.3,00.0,39.3,31.9,16.9,0000.0,0013.53,0004.42,0003.17
2021-09-17 11:46:00,,0835.0,4.99,0.00,30.2,29.3,00.0,39.3,31.9,16.9,0000.0,0013.39,0004.44,0003.19
2021-09-17 11:47:00,,0835.0,5.01,0.00,30.2,29.3,00.0,39.3,32.0,16.9,0000.0,0013.67,0004.39,0003.20
2021-09-17 11:48:00,,0835.0,5.01,0.00,30.2,29.3,00.0,39.3,32.0,16.9,0000.0,0013.80,0004.40,0003.20
2021-09-17 11:49:00,,0835.0,4.99,0.00,30.2,29.3,00.0,39.3,32.0,16.9,0000.0,0014.28,0004.38,0003.19
2021-09-17 11:50:00,,0835.0,5.01,0.00,30.2,29.3,00.0,39.4,32.0,16.9,0000.0,0014.30,0004.37,0003.19
2021-09-17 11:51:00,,0835.0,5.01,0.00,30.2,29.3,00.0,39.4,32.0,16.9,0000.0,0014.78,0004.37,0003.18
2021-09-17 11:52:00,,0835.0,5.00,0.00,30.2,29.3,00.0,39.4,32.0,16.9,0000.0,0015.30,0004.38,0003.19
2021-09-17 11:53:00,,0835.0,5.01,0.00,30.2,29.3,00.0,39.3,32.0,16.9,0000.0,0015.69,0004.34,0003.19
2021-09-17 11:54:00,,0835.0,5.01,0.00,30.2,29.3,00.0,39.4,32.0,16.9,0000.0,0015.96,0004.31,0003.19
2021-09-17 11:55:00,,0835.1,5.00,0.00,30.2,29.3,00.0,39.4,32.0,16.9,0000.0,0015.71,0004.30,0003.19
2021-09-17 11:56:00,,0835.1,4.99,0.00,30.2,29.3,00.0,39.4,32.0,16.8,0000.0,0015.56,0004.31,0003.21
2021-09-17 11:57:00,,0835.1,5.00,0.00,30.2,29.3,00.0,39.4,32.0,16.9,0000.0,0014.95,0004.32,0003.21
2021-09-17 11:58:00,,0835.0,4.99,0.00,30.2,29.3,00.0,39.4,32.0,16.9,0000.0,0015.05,0004.38,0003.21
2021-09-17 11:59:00,,0835.0,4.99,0.00,30.2,29.3,00.0,39.4,32.0,16.9,0000.0,0015.29,0004.36,0003.21
